Flag for Germany Weather past 2 weeks in Augsburg, Bavaria, Germany

Now
52 °F

Scattered clouds.


Feels Like: 50 °F
Forecast: 35 / 54 °F
Wind: 6 mph from East

Location: Augsburg Airport

Current Time: Oct 24, 2014 at 1:41:00 PM

Latest Report: Oct 24, 2014 at 1:20 PM


Visibility: N/A

Pressure: 30.18 "Hg

Humidity: 77%

Dew point: 45 °F

Location of AugsburgLocation

Historic Weather in Augsburg — Graph

°F

Augsburg temperature yesterday

Maximum temperature yesterday: 46 °F (at 2:50 PM)
Minimum temperature yesterday: 43 °F (at 6:20 AM)
Average temperature yesterday: 44 °F

Past Weeks' High & Low Weather Summary

 TemperatureHumidityPressure
High77 °F (Oct 9, 2:20 PM)100% (Oct 10, 6:50 AM)30.27 "Hg (Oct 10, 6:50 AM)
Low41 °F (Oct 22, 6:20 AM)32% (Oct 9, 4:20 PM)29.65 "Hg (Oct 21, 7:50 PM)
Average57 °F85%29.99 "Hg
* Reported Oct 9 12:20 PM — Oct 24 12:20 PM, Augsburg, Weather by CustomWeather, © 2014

Note: Actual official high and low records may vary slightly from our data, if they occured in-between our weather recording intervals... More about our weather records

Advertising

Augsburg weather history for previous 24 hours

 ConditionsComfort  
Time TempWeatherWind HumidityBarometerVisibility
12:20 PM
Oct 24
48 °FScattered clouds.5 mph87%30.21 "HgN/A
11:50 AM50 °FScattered clouds.3 mph88%30.21 "Hg6 mi
11:20 AM48 °FScattered clouds.3 mph94%30.21 "Hg5 mi
10:50 AM46 °FScattered clouds.3 mph100%30.21 "Hg5 mi
10:20 AM46 °FPartly sunny.2 mph93%30.21 "Hg5 mi
9:50 AM45 °FBroken clouds.1 mph100%30.21 "Hg4 mi
9:20 AM45 °FFog.3 mph100%30.21 "Hg3 mi
8:50 AM43 °FFog.3 mph100%30.24 "Hg3 mi
8:20 AM43 °FFog.2 mph100%30.24 "Hg2 mi
7:50 AM43 °FFog.3 mph100%30.21 "Hg2 mi
7:20 AM43 °FLow clouds.1 mph100%30.21 "Hg3 mi
6:50 AM43 °FLow clouds.2 mph100%30.21 "Hg3 mi
9:20 PM
Oct 23
45 °FPassing clouds.2 mph100%30.24 "HgN/A
8:50 PM45 °FPassing clouds.2 mph100%30.24 "HgN/A
8:20 PM45 °FPassing clouds.3 mph100%30.24 "HgN/A
7:50 PM45 °FMostly cloudy.1 mph100%30.24 "HgN/A
7:20 PM45 °FPartly cloudy.5 mph100%30.24 "HgN/A
6:50 PM45 °FDrizzle. Broken clouds.3 mph100%30.24 "HgN/A
6:20 PM45 °FPartly sunny.5 mph100%30.24 "HgN/A
5:50 PM45 °FOvercast.5 mph100%30.24 "HgN/A
5:20 PM46 °FDrizzle. More clouds than sun.5 mph93%30.24 "HgN/A
4:50 PM46 °FLight rain. Overcast.6 mph93%30.24 "HgN/A
4:20 PM46 °FLight rain. Mostly cloudy.6 mph87%30.24 "HgN/A
3:50 PM46 °FMostly cloudy.5 mph87%30.21 "HgN/A
3:20 PM46 °FOvercast.9 mph82%30.21 "HgN/A
2:50 PM46 °FOvercast.10 mph87%30.21 "HgN/A
2:20 PM45 °FOvercast.12 mph93%30.21 "HgN/A
1:50 PM45 °FOvercast.10 mph93%30.21 "HgN/A
1:20 PM45 °FMore clouds than sun.16 mph93%30.21 "HgN/A
Weather by CustomWeather, © 2014

See weather overviewHow to use our weather pages